US Team Trials - Long May 29, 2011

View results by course

F-21+

Red, 8.60 km, 250 m, 17 Ctrls, CGV: 0.0

Pl Name Club Time Pace Score Diff
1 Alison Crocker CSU 1:14:31 8:40 102.41 +4.1
2 Samantha Saeger NEOC 1:15:04 8:44 101.66 +4.4
3 Jenny Arvidsson DVOA 1:19:17 9:13 96.26 -4.4
4 Alexandra Jospe CSU 1:29:05 10:22 85.67 +3.8
5 Hannah Burgess USMAOC 1:30:03 10:28 84.75 -2.7
6 Marie Arnesson WCOC 1:30:11 10:29 84.62 -1.2
7 Hillary Saeger NEOC 1:33:14 10:50 81.85 +8.5
8 Pavlina Brautigam WCOC 1:36:11 11:11 79.34 -1.2
9 Angelica Riley DVOA 1:39:11 11:32 76.94 +0.4
10 Cristina Luis TSN 1:57:10 13:37 65.13 -8.2
11 Anna Shafer-Skelton SLOC 1:59:12 13:52 64.02 -8.8
12 Sharon Crawford RMOC 2:21:11 16:25 54.05 +1.3
13 Linda Kohn ROC 2:26:37 17:03 52.05 -2.9
  Charlotte MacNaughton FWOC DNF   0.00 -30.3
  Kseniya Popova HVO DNF   0.00 -81.2
  Alison Campbell DVOA DNF   0.00 -72.9

M-20

Red, 8.60 km, 250 m, 17 Ctrls, CGV: 0.0

Pl Name Club Time Pace Score Diff
1 Andrew Childs GMOC 1:24:17 9:48 90.55 -11.6
2 Ethan Childs GMOC 1:28:19 10:16 86.41 -5.5
3 Nathan Ohrwaschel DVOA 1:35:13 11:04 80.15 -2.5
4 Zachary Barker DVOA 1:35:26 11:06 79.97 +0.5
5 Alexander Bergstrom OOC 1:42:22 11:54 74.55 -7.1
6 Sam Reed DVOA 1:51:35 12:58 68.39 +5.0

M45+

Red, 8.60 km, 250 m, 17 Ctrls, CGV: 0.0

Pl Name Club Time Pace Score Diff
1 Peter Gagarin CSU 1:27:16 10:09 87.45 +3.3
2 Eugene Mlynczyk UKR 1:30:40 10:33 84.17 -0.6
3 Jeffrey Saeger NEOC 1:30:49 10:34 84.03 +4.4
4 Adrian Zissos FWOC 1:43:22 12:01 73.83 -5.1
5 Randy Kemp OOC 1:43:44 12:04 73.57 -1.0
6 Stephen Wilson DVOA 1:46:04 12:20 71.95 -8.6
7 Daniel Schaublin HVO 1:47:54 12:33 70.73 -4.4
8 Michael Lyons ROC 1:52:11 13:03 68.03 -0.4
9 Charlie DeWeese WCOC 1:54:06 13:16 66.88 +1.0
10 Tom Strat QOC 1:57:16 13:38 65.08 -4.3
11 Glen Tryson EMPO 2:02:44 14:16 62.18 -6.8
12 Phil Bricker NEOC 2:05:18 14:34 60.91 -0.3
13 Ken Walker Sr CSU 2:07:25 14:49 59.89 -1.0
14 Fred Reed DVOA 2:13:55 15:34 56.99 +0.0
15 Francis Hogle QOC 2:33:44 17:53 49.64 -1.2
16 Stephen Templeton HVO 2:35:57 18:08 48.94 +0.0
17 Dean Sturtevant NEOC 2:57:21 20:37 43.03 -9.1
18 Eric Bressler LIOC 3:34:27 24:56 35.59 +0.0
  Dan Barker DVOA DNF   0.00 0.0
  Bob Lux UNO DNF   0.00 -35.4